Regional Weather Roundup
Issued by NWS

Home | Current Version | Previous Version | Text Only | Print | Product List | Glossary On
Versions: 1 2 3 4 5 6 7 8 9 10 11 12 13 14 15 16 17 18 19 20 21 22 23 24 25 26 27 28 29 30 31 32 33 34 35 36 37 38 39 40 41 42 43 44 45 46 47 48 49 50
000
ASUS42 KKEY 071110
RWRKEY

FLORIDA REGIONAL WEATHER ROUNDUP FOR THE FLORIDA KEYS
NATIONAL WEATHER SERVICE KEY WEST FLORIDA
600 AM EST SUN FEB 07 2016

...SOUTH FLORIDA AND THE KEYS...

CITY           SKY/WX    TMP DP  RH WIND       PRES   REMARKS
FORT MYERS     CLOUDY    51  44  77 N16G22    30.00F
SW REGIONAL AP CLOUDY    52  43  71 N10       30.01S
NAPLES         CLOUDY    54  45  71 N7        30.01R
MIAMI          CLOUDY    55  48  77 W10G18    29.96S
WEST KENDALL   CLOUDY    54  50  86 NW13G23   29.96F
HOMESTEAD      CLOUDY    55  49  81 NW12      29.96S
MARATHON       CLOUDY    61  55  81 NW14      29.98S
BOCA CHICA NAS MOCLDY    62  56  80 N12       29.99R
KEY WEST INTL  MOCLDY    63  58  83 N9        29.99S

...INTERNATIONAL WEATHER...

CITY           SKY/WX    TMP DP  RH WIND       PRES   REMARKS
NASSAU BAHAMAS PTCLDY    73  70  88 MISG      29.88R
CANCUN MEXICO  PTCLDY    61  59  94 W6        30.11S
COZUMEL MEXICO PTCLDY    64  59  82 N17       30.11S

ADJACENT COASTAL WATERS...

STATION/POSITION TIME  SKY/WX   TEMP    WIND        PRES    WAVE
                                AIR SEA DIR/SP/G            HT/PER
                 (UTC)          (F)     (DEG/KT/KT) (MB)    (FT/S)
PULASKI SHOAL LI 1000                                 N/A
SAND KEY         1050            65     360/ 13/ 16 1015.9R
SOMBRERO KEY     NOT AVBL
LONG KEY         1000            61 68  350/ 19/ 21 1015.8R
MOLASSES REEF    1100            58 75  330/ 19/ 21 1014.8R
FOWEY ROCKS      NOT AVBL

$$



USA.gov is the U.S. government's official web portal to all federal, state and local government web resources and services.